| time (UTC) | temp F | wind direction | speed MPH | gust MPH | rain 1hr in | rain 24hr in | rain mn in | humidity % | barometer mb |
| 20260506214405 | 0 | 0.0 | 0.0 | 0.00 | 0.02 | 0.02 | 1013.0 | ||
| 20260506213903 | 0 | 0.0 | 0.0 | 0.00 | 0.02 | 0.02 | 1013.2 | ||
| 20260506213400 | 0 | 0.0 | 0.0 | 0.00 | 0.02 | 0.02 | 1013.0 | ||
| 20260506212858 | 0 | 0.0 | 0.0 | 0.00 | 0.02 | 0.02 | 1012.9 | ||
| 20260506212353 | 0 | 0.0 | 0.0 | 0.00 | 0.02 | 0.02 | 1012.7 | ||
| 20260506211848 | 0 | 0.0 | 0.0 | 0.00 | 0.02 | 0.02 | 1012.6 | ||
| 20260506211344 | 0 | 0.0 | 0.0 | 0.00 | 0.02 | 0.02 | 1012.8 | ||
| 20260506210842 | 0 | 0.0 | 0.0 | 0.00 | 0.02 | 0.02 | 1013.2 | ||
| 20260506210339 | 0 | 0.0 | 0.0 | 0.00 | 0.02 | 0.02 | 1012.9 | ||
| 20260506205836 | 0 | 0.0 | 0.0 | 0.00 | 0.02 | 0.02 | 1012.7 | ||
| 20260506205332 | 0 | 0.0 | 0.0 | 0.00 | 0.02 | 0.02 | 1013.3 | ||
| 20260506204828 | 0 | 0.0 | 0.0 | 0.00 | 0.02 | 0.02 | 1013.0 | ||
| 20260506204326 | 0 | 0.0 | 0.0 | 0.00 | 0.02 | 0.02 | 1013.0 | ||
| 20260506203824 | 0 | 0.0 | 0.0 | 0.00 | 0.02 | 0.02 | 1013.2 | ||
| 20260506203321 | 0 | 0.0 | 0.0 | 0.00 | 0.02 | 0.02 | 1013.1 | ||
| 20260506202817 | 0 | 0.0 | 0.0 | 0.00 | 0.02 | 0.02 | 1013.2 | ||
| 20260506202314 | 0 | 0.0 | 0.0 | 0.00 | 0.02 | 0.02 | 1013.2 | ||
| 20260506201811 | 0 | 0.0 | 0.0 | 0.00 | 0.02 | 0.02 | 1013.4 | ||
| 20260506201308 | 0 | 0.0 | 0.0 | 0.00 | 0.02 | 0.02 | 1013.8 | ||
| 20260506200805 | 0 | 0.0 | 0.0 | 0.00 | 0.02 | 0.02 | 1013.8 | ||
| 20260506200301 | 0 | 0.0 | 0.0 | 0.00 | 0.02 | 0.02 | 1013.5 | ||
| 20260506195757 | 0 | 0.0 | 0.0 | 0.00 | 0.02 | 0.02 | 1013.9 | ||
| 20260506195255 | 0 | 0.0 | 0.0 | 0.00 | 0.02 | 0.02 | 1013.9 | ||
| 20260506194752 | 0 | 0.0 | 0.0 | 0.00 | 0.02 | 0.02 | 1013.9 | ||
| 20260506194248 | 0 | 0.0 | 0.0 | 0.00 | 0.02 | 0.02 | 1013.7 | ||
| 20260506193746 | 0 | 0.0 | 0.0 | 0.00 | 0.02 | 0.02 | 1013.5 | ||
| 20260506193242 | 0 | 0.0 | 0.0 | 0.00 | 0.02 | 0.02 | 1014.1 | ||
| 20260506192738 | 0 | 0.0 | 0.0 | 0.00 | 0.02 | 0.02 | 1014.3 | ||
| 20260506192235 | 0 | 0.0 | 0.0 | 0.00 | 0.02 | 0.02 | 1014.3 | ||
| 20260506191732 | 0 | 0.0 | 0.0 | 0.00 | 0.02 | 0.02 | 1014.4 | ||
| 20260506191229 | 0 | 0.0 | 0.0 | 0.00 | 0.02 | 0.02 | 1014.2 | ||
| 20260506190726 | 0 | 0.0 | 0.0 | 0.00 | 0.02 | 0.02 | 1014.4 | ||
| 20260506190222 | 0 | 0.0 | 0.0 | 0.00 | 0.02 | 0.02 | 1014.2 | ||
| 20260506185720 | 0 | 0.0 | 0.0 | 0.00 | 0.02 | 0.02 | 1014.3 | ||
| 20260506185216 | 0 | 0.0 | 0.0 | 0.00 | 0.02 | 0.02 | 1014.5 | ||
| 20260506184714 | 0 | 0.0 | 0.0 | 0.00 | 0.02 | 0.02 | 1014.8 | ||
| 20260506184211 | 0 | 0.0 | 0.0 | 0.00 | 0.02 | 0.02 | 1014.5 | ||
| 20260506183707 | 0 | 0.0 | 0.0 | 0.00 | 0.02 | 0.02 | 1014.3 | ||
| 20260506183203 | 0 | 0.0 | 0.0 | 0.00 | 0.02 | 0.02 | 1014.2 | ||
| 20260506182701 | 0 | 0.0 | 0.0 | 0.00 | 0.02 | 0.02 | 1013.9 | ||
| 20260506182157 | 0 | 0.0 | 0.0 | 0.00 | 0.02 | 0.02 | 1013.8 | ||
| 20260506181650 | 0 | 0.0 | 0.0 | 0.00 | 0.02 | 0.02 | 1013.2 | ||
| 20260506181147 | 0 | 0.0 | 0.0 | 0.00 | 0.02 | 0.02 | 1012.8 | ||
| 20260506180644 | 0 | 0.0 | 0.0 | 0.00 | 0.02 | 0.02 | 1012.7 | ||
| 20260506180140 | 0 | 0.0 | 0.0 | 0.00 | 0.02 | 0.02 | 1013.0 | ||
| 20260506175636 | 0 | 0.0 | 0.0 | 0.00 | 0.02 | 0.02 | 1013.1 | ||
| 20260506175133 | 0 | 0.0 | 0.0 | 0.00 | 0.02 | 0.02 | 1013.0 | ||
| 20260506174631 | 0 | 0.0 | 0.0 | 0.00 | 0.02 | 0.02 | 1013.1 | ||
| 20260506174128 | 0 | 0.0 | 0.0 | 0.00 | 0.02 | 0.02 | 1013.6 | ||
| 20260506173626 | 0 | 0.0 | 0.0 | 0.00 | 0.02 | 0.02 | 1013.5 | ||
| 20260506173122 | 0 | 0.0 | 0.0 | 0.00 | 0.02 | 0.02 | 1013.9 | ||
| 20260506172619 | 0 | 0.0 | 0.0 | 0.00 | 0.02 | 0.02 | 1013.8 | ||
| 20260506172115 | 0 | 0.0 | 0.0 | 0.00 | 0.02 | 0.02 | 1013.8 | ||
| 20260506171613 | 0 | 0.0 | 0.0 | 0.00 | 0.02 | 0.02 | 1013.8 | ||
| 20260506171110 | 0 | 0.0 | 0.0 | 0.00 | 0.02 | 0.02 | 1013.8 | ||
| 20260506170602 | 0 | 0.0 | 0.0 | 0.00 | 0.02 | 0.02 | 1013.7 | ||
| 20260506170059 | 0 | 0.0 | 0.0 | 0.00 | 0.02 | 0.02 | 1013.8 | ||
| 20260506165558 | 0 | 0.0 | 0.0 | 0.00 | 0.02 | 0.02 | 1013.6 | ||
| 20260506165053 | 0 | 0.0 | 0.0 | 0.00 | 0.02 | 0.02 | 1013.9 | ||
| 20260506164551 | 0 | 0.0 | 0.0 | 0.00 | 0.02 | 0.02 | 1013.6 | ||
| 20260506164048 | 0 | 0.0 | 0.0 | 0.00 | 0.02 | 0.02 | 1013.6 | ||
| 20260506163543 | 0 | 0.0 | 0.0 | 0.00 | 0.02 | 0.02 | 1013.8 | ||
| 20260506163040 | 0 | 0.0 | 0.0 | 0.00 | 0.02 | 0.02 | 1013.9 | ||
| 20260506162536 | 0 | 0.0 | 0.0 | 0.00 | 0.02 | 0.02 | 1013.8 | ||
| 20260506162033 | 0 | 0.0 | 0.0 | 0.00 | 0.02 | 0.02 | 1013.9 | ||
| 20260506161531 | 0 | 0.0 | 0.0 | 0.00 | 0.02 | 0.02 | 1014.1 | ||
| 20260506161028 | 0 | 0.0 | 0.0 | 0.00 | 0.02 | 0.02 | 1013.7 | ||
| 20260506160526 | 0 | 0.0 | 0.0 | 0.00 | 0.02 | 0.02 | 1013.7 | ||
| 20260506160023 | 0 | 0.0 | 0.0 | 0.00 | 0.02 | 0.02 | 1014.2 | ||
| 20260506155521 | 0 | 0.0 | 0.0 | 0.00 | 0.02 | 0.02 | 1013.7 | ||
| 20260506153658 | 0 | 0.0 | 0.0 | 0.00 | 0.02 | 0.02 | 1013.1 | ||
| 20260506153155 | 0 | 0.0 | 0.0 | 0.00 | 0.02 | 0.02 | 1013.1 | ||
| 20260506152652 | 0 | 0.0 | 0.0 | 0.00 | 0.02 | 0.02 | 1013.0 | ||
| 20260506152149 | 0 | 0.0 | 0.0 | 0.00 | 0.02 | 0.02 | 1014.1 | ||
| 20260506151648 | 0 | 0.0 | 0.0 | 0.02 | 0.02 | 0.02 | 1014.9 | ||
| 20260506151144 | 0 | 0.0 | 0.0 | 0.09 | 0.02 | 0.02 | 1014.7 | ||
| 20260506150641 | 0 | 0.0 | 0.0 | 0.09 | 0.02 | 0.02 | 1014.0 | ||
| 20260506150138 | 0 | 0.0 | 0.0 | 0.05 | 0.01 | 0.01 | 1015.4 | ||
| 20260506145635 | 0 | 0.0 | 0.0 | 0.02 | 0.00 | 0.00 | 1015.7 | ||
| 20260506145132 | 0 | 0.0 | 0.0 | 0.00 | 0.00 | 0.00 | 1015.4 | ||
| 20260506144630 | 0 | 0.0 | 0.0 | 0.00 | 0.00 | 0.00 | 1015.1 | ||
| 20260506144126 | 0 | 0.0 | 0.0 | 0.00 | 0.00 | 0.00 | 1015.1 | ||
| 20260506143624 | 0 | 0.0 | 0.0 | 0.00 | 0.00 | 0.00 | 1015.1 | ||
| 20260506143121 | 0 | 0.0 | 0.0 | 0.00 | 0.00 | 0.00 | 1014.6 | ||
| 20260506142620 | 0 | 0.0 | 0.0 | 0.00 | 0.00 | 0.00 | 1013.6 | ||
| 20260506142118 | 0 | 0.0 | 0.0 | 0.00 | 0.00 | 0.00 | 1013.3 | ||
| 20260506141615 | 0 | 0.0 | 0.0 | 0.00 | 0.00 | 0.00 | 1013.6 | ||
| 20260506141113 | 0 | 0.0 | 0.0 | 0.00 | 0.00 | 0.00 | 1013.9 | ||
| 20260506140610 | 0 | 0.0 | 0.0 | 0.00 | 0.00 | 0.00 | 1014.2 | ||
| 20260506140107 | 0 | 0.0 | 0.0 | 0.00 | 0.00 | 0.00 | 1013.9 | ||
| 20260506135604 | 0 | 0.0 | 0.0 | 0.00 | 0.00 | 0.00 | 1013.8 | ||
| 20260506135100 | 0 | 0.0 | 0.0 | 0.00 | 0.00 | 0.00 | 1014.0 | ||
| 20260506134557 | 0 | 0.0 | 0.0 | 0.00 | 0.00 | 0.00 | 1013.7 | ||
| 20260506134053 | 0 | 0.0 | 0.0 | 0.00 | 0.00 | 0.00 | 1013.3 | ||
| 20260506133550 | 0 | 0.0 | 0.0 | 0.00 | 0.00 | 0.00 | 1013.3 | ||
| 20260506133047 | 0 | 0.0 | 0.0 | 0.00 | 0.00 | 0.00 | 1013.1 | ||
| 20260506132544 | 0 | 0.0 | 0.0 | 0.00 | 0.00 | 0.00 | 1013.1 | ||
| 20260506132042 | 0 | 0.0 | 0.0 | 0.00 | 0.00 | 0.00 | 1013.1 | ||
| 20260506131538 | 0 | 0.0 | 0.0 | 0.00 | 0.00 | 0.00 | 1013.2 | ||
| 20260506131035 | 0 | 0.0 | 0.0 | 0.00 | 0.00 | 0.00 | 1013.2 | ||
| 20260506130532 | 0 | 0.0 | 0.0 | 0.00 | 0.00 | 0.00 | 1012.7 | ||
| 20260506130029 | 0 | 0.0 | 0.0 | 0.00 | 0.00 | 0.00 | 1012.6 | ||
| 20260506125527 | 0 | 0.0 | 0.0 | 0.00 | 0.00 | 0.00 | 1012.5 | ||
| 20260506125025 | 0 | 0.0 | 0.0 | 0.00 | 0.00 | 0.00 | 1012.6 | ||
| 20260506124523 | 0 | 0.0 | 0.0 | 0.00 | 0.00 | 0.00 | 1012.7 | ||
| 20260506124020 | 0 | 0.0 | 0.0 | 0.00 | 0.00 | 0.00 | 1012.6 | ||
| 20260506123518 | 0 | 0.0 | 0.0 | 0.00 | 0.00 | 0.00 | 1012.4 | ||
| 20260506123016 | 0 | 0.0 | 0.0 | 0.00 | 0.00 | 0.00 | 1012.3 | ||
| 20260506122512 | 0 | 0.0 | 0.0 | 0.00 | 0.00 | 0.00 | 1012.4 | ||
| 20260506122011 | 0 | 0.0 | 0.0 | 0.00 | 0.00 | 0.00 | 1012.3 | ||
| 20260506121508 | 0 | 0.0 | 0.0 | 0.00 | 0.00 | 0.00 | 1011.8 | ||
| 20260506121004 | 0 | 0.0 | 0.0 | 0.00 | 0.00 | 0.00 | 1012.1 | ||
| 20260506120502 | 0 | 0.0 | 0.0 | 0.00 | 0.00 | 0.00 | 1012.2 | ||
| 20260506115959 | 0 | 0.0 | 0.0 | 0.00 | 0.00 | 0.00 | 1012.2 | ||
| 20260506115457 | 0 | 0.0 | 0.0 | 0.00 | 0.00 | 0.00 | 1012.1 | ||
| 20260506114955 | 0 | 0.0 | 0.0 | 0.00 | 0.00 | 0.00 | 1012.2 | ||
| 20260506114452 | 0 | 0.0 | 0.0 | 0.00 | 0.00 | 0.00 | 1011.8 | ||
| 20260506113950 | 0 | 0.0 | 0.0 | 0.00 | 0.00 | 0.00 | 1011.7 | ||
| 20260506113448 | 0 | 0.0 | 0.0 | 0.00 | 0.00 | 0.00 | 1011.6 | ||
| 20260506112944 | 0 | 0.0 | 0.0 | 0.00 | 0.00 | 0.00 | 1011.6 | ||
| 20260506112442 | 0 | 0.0 | 0.0 | 0.00 | 0.00 | 0.00 | 1011.5 | ||
| 20260506111939 | 0 | 0.0 | 0.0 | 0.00 | 0.00 | 0.00 | 1011.3 | ||
| 20260506111437 | 0 | 0.0 | 0.0 | 0.00 | 0.00 | 0.00 | 1011.3 | ||
| 20260506110934 | 0 | 0.0 | 0.0 | 0.00 | 0.00 | 0.00 | 1010.7 | ||
| 20260506110432 | 0 | 0.0 | 0.0 | 0.00 | 0.00 | 0.00 | 1011.1 | ||
| 20260506105928 | 0 | 0.0 | 0.0 | 0.00 | 0.00 | 0.00 | 1011.0 | ||
| 20260506105424 | 0 | 0.0 | 0.0 | 0.00 | 0.00 | 0.00 | 1010.8 | ||
| 20260506104922 | 0 | 0.0 | 0.0 | 0.00 | 0.00 | 0.00 | 1011.0 | ||
| 20260506104420 | 0 | 0.0 | 0.0 | 0.00 | 0.00 | 0.00 | 1010.8 | ||
| 20260506103917 | 0 | 0.0 | 0.0 | 0.00 | 0.00 | 0.00 | 1010.7 | ||
| 20260506103415 | 0 | 0.0 | 0.0 | 0.00 | 0.00 | 0.00 | 1010.8 | ||
| 20260506102911 | 0 | 0.0 | 0.0 | 0.00 | 0.00 | 0.00 | 1010.4 | ||
| 20260506102410 | 0 | 0.0 | 0.0 | 0.00 | 0.00 | 0.00 | 1010.2 | ||
| 20260506101907 | 0 | 0.0 | 0.0 | 0.00 | 0.00 | 0.00 | 1010.3 | ||
| 20260506101403 | 0 | 0.0 | 0.0 | 0.00 | 0.00 | 0.00 | 1010.1 | ||
| 20260506100900 | 0 | 0.0 | 0.0 | 0.00 | 0.00 | 0.00 | 1010.1 | ||
| 20260506100358 | 0 | 0.0 | 0.0 | 0.00 | 0.00 | 0.00 | 1010.0 | ||
| 20260506095856 | 0 | 0.0 | 0.0 | 0.00 | 0.00 | 0.00 | 1010.1 | ||
| 20260506095354 | 0 | 0.0 | 0.0 | 0.00 | 0.00 | 0.00 | 1009.8 | ||
| 20260506094850 | 0 | 0.0 | 0.0 | 0.00 | 0.00 | 0.00 | 1009.6 | ||
| 20260506094349 | 0 | 0.0 | 0.0 | 0.00 | 0.00 | 0.00 | 1009.9 | ||
| 20260506093847 | 0 | 0.0 | 0.0 | 0.00 | 0.00 | 0.00 | 1009.9 | ||
| 20260506093344 | 0 | 0.0 | 0.0 | 0.00 | 0.00 | 0.00 | 1009.8 | ||
| 20260506092841 | 0 | 0.0 | 0.0 | 0.00 | 0.00 | 0.00 | 1009.5 | ||
| 20260506092340 | 0 | 0.0 | 0.0 | 0.00 | 0.00 | 0.00 | 1009.7 | ||
| 20260506091836 | 0 | 0.0 | 0.0 | 0.00 | 0.00 | 0.00 | 1009.6 | ||
| 20260506091334 | 0 | 0.0 | 0.0 | 0.00 | 0.00 | 0.00 | 1009.6 | ||
| 20260506090831 | 0 | 0.0 | 0.0 | 0.00 | 0.00 | 0.00 | 1009.6 | ||
| 20260506090328 | 0 | 0.0 | 0.0 | 0.00 | 0.00 | 0.00 | 1009.6 | ||
| 20260506085825 | 0 | 0.0 | 0.0 | 0.00 | 0.00 | 0.00 | 1009.5 | ||
| 20260506085321 | 0 | 0.0 | 0.0 | 0.00 | 0.00 | 0.00 | 1009.7 | ||
| 20260506084818 | 0 | 0.0 | 0.0 | 0.00 | 0.00 | 0.00 | 1009.4 | ||
| 20260506084314 | 0 | 0.0 | 0.0 | 0.00 | 0.00 | 0.00 | 1009.5 | ||
| 20260506083811 | 0 | 0.0 | 0.0 | 0.00 | 0.00 | 0.00 | 1009.2 | ||
| 20260506083309 | 0 | 0.0 | 0.0 | 0.00 | 0.00 | 0.00 | 1009.2 | ||
| 20260506082806 | 0 | 0.0 | 0.0 | 0.00 | 0.00 | 0.00 | 1009.2 | ||
| 20260506082304 | 0 | 0.0 | 0.0 | 0.00 | 0.00 | 0.00 | 1009.4 | ||
| 20260506081759 | 0 | 0.0 | 0.0 | 0.00 | 0.00 | 0.00 | 1009.3 | ||
| 20260506081257 | 0 | 0.0 | 0.0 | 0.00 | 0.00 | 0.00 | 1009.4 | ||
| 20260506080754 | 0 | 0.0 | 0.0 | 0.00 | 0.00 | 0.00 | 1009.3 | ||
| 20260506080250 | 0 | 0.0 | 0.0 | 0.00 | 0.00 | 0.00 | 1009.2 | ||
| 20260506073234 | 0 | 0.0 | 0.0 | 0.00 | 0.00 | 0.00 | 1008.7 | ||
| 20260506072731 | 0 | 0.0 | 0.0 | 0.00 | 0.00 | 0.00 | 1008.8 | ||
| 20260506072229 | 0 | 0.0 | 0.0 | 0.00 | 0.00 | 0.00 | 1008.9 | ||
| 20260506071727 | 0 | 0.0 | 0.0 | 0.00 | 0.00 | 0.00 | 1008.8 | ||
| 20260506071224 | 0 | 0.0 | 0.0 | 0.00 | 0.00 | 0.00 | 1009.1 | ||
| 20260506070721 | 0 | 0.0 | 0.0 | 0.00 | 0.00 | 0.00 | 1008.8 | ||
| 20260506070218 | 0 | 0.0 | 0.0 | 0.00 | 0.00 | 0.00 | 1008.9 | ||
| 20260506062155 | 0 | 0.0 | 0.0 | 0.00 | 0.00 | 0.00 | 1008.8 | ||
| 20260506061651 | 0 | 0.0 | 0.0 | 0.00 | 0.00 | 0.00 | 1008.6 | ||
| 20260506061148 | 0 | 0.0 | 0.0 | 0.00 | 0.00 | 0.00 | 1008.9 | ||
| 20260506060647 | 0 | 0.0 | 0.0 | 0.00 | 0.00 | 0.00 | 1008.9 | ||
| 20260506060143 | 0 | 0.0 | 0.0 | 0.00 | 0.00 | 0.00 | 1009.0 | ||
| 20260506051115 | 0 | 0.0 | 0.0 | 0.00 | 0.00 | 0.00 | 1009.1 | ||
| 20260506050614 | 0 | 0.0 | 0.0 | 0.00 | 0.00 | 0.00 | 1009.2 | ||
| 20260506050111 | 0 | 0.0 | 0.0 | 0.00 | 0.00 | 0.00 | 1009.1 | ||
| 20260506045104 | 0 | 0.0 | 0.0 | 0.00 | 0.00 | 0.00 | 1008.5 | ||
| 20260506044602 | 0 | 0.0 | 0.0 | 0.00 | 0.00 | 0.00 | 1008.7 | ||
| 20260506044058 | 0 | 0.0 | 0.0 | 0.00 | 0.00 | 0.00 | 1008.6 | ||
| 20260506043555 | 0 | 0.0 | 0.0 | 0.00 | 0.00 | 0.00 | 1008.7 | ||
| 20260506043054 | 0 | 0.0 | 0.0 | 0.00 | 0.00 | 0.00 | 1008.9 | ||
| 20260506042553 | 0 | 0.0 | 0.0 | 0.00 | 0.00 | 0.00 | 1009.1 | ||
| 20260506042050 | 0 | 0.0 | 0.0 | 0.00 | 0.00 | 0.00 | 1009.0 | ||
| 20260506041549 | 0 | 0.0 | 0.0 | 0.00 | 0.00 | 0.00 | 1008.9 | ||
| 20260506041045 | 0 | 0.0 | 0.0 | 0.00 | 0.00 | 0.00 | 1008.8 | ||
| 20260506040543 | 0 | 0.0 | 0.0 | 0.00 | 0.00 | 0.00 | 1008.7 | ||
| 20260506040038 | 0 | 0.0 | 0.0 | 0.00 | 0.00 | 0.00 | 1008.6 | ||
| 20260506035536 | 0 | 0.0 | 0.0 | 0.00 | 0.00 | 0.00 | 1008.5 | ||
| 20260506035032 | 0 | 0.0 | 0.0 | 0.00 | 0.00 | 0.00 | 1008.1 | ||
| 20260506034530 | 0 | 0.0 | 0.0 | 0.00 | 0.00 | 0.00 | 1008.0 | ||
| 20260506034026 | 0 | 0.0 | 0.0 | 0.00 | 0.00 | 0.00 | 1008.0 | ||
| 20260506033524 | 0 | 0.0 | 0.0 | 0.00 | 0.00 | 0.00 | 1008.4 | ||
| 20260506033021 | 0 | 0.0 | 0.0 | 0.00 | 0.00 | 0.00 | 1008.1 | ||
| 20260506032518 | 0 | 0.0 | 0.0 | 0.00 | 0.00 | 0.00 | 1007.9 | ||
| 20260506032015 | 0 | 0.0 | 0.0 | 0.00 | 0.00 | 0.00 | 1007.7 | ||
| 20260506031513 | 0 | 0.0 | 0.0 | 0.00 | 0.00 | 0.00 | 1007.6 | ||
| 20260506031009 | 0 | 0.0 | 0.0 | 0.00 | 0.00 | 0.00 | 1007.5 | ||
| 20260506030508 | 0 | 0.0 | 0.0 | 0.00 | 0.00 | 0.00 | 1007.5 | ||
| 20260506030004 | 0 | 0.0 | 0.0 | 0.00 | 0.00 | 0.00 | 1007.5 | ||
| 20260506025501 | 0 | 0.0 | 0.0 | 0.00 | 0.00 | 0.00 | 1007.3 | ||
| 20260506024957 | 0 | 0.0 | 0.0 | 0.00 | 0.00 | 0.00 | 1007.4 | ||
| 20260506024454 | 0 | 0.0 | 0.0 | 0.00 | 0.00 | 0.00 | 1007.6 | ||
| 20260506023950 | 0 | 0.0 | 0.0 | 0.00 | 0.00 | 0.00 | 1007.2 | ||
| 20260506023447 | 0 | 0.0 | 0.0 | 0.00 | 0.00 | 0.00 | 1007.2 | ||
| 20260506022944 | 0 | 0.0 | 0.0 | 0.00 | 0.00 | 0.00 | 1007.0 | ||
| 20260506022442 | 0 | 0.0 | 0.0 | 0.00 | 0.00 | 0.00 | 1006.8 | ||
| 20260506021939 | 0 | 0.0 | 0.0 | 0.00 | 0.00 | 0.00 | 1006.7 | ||
| 20260506021436 | 0 | 0.0 | 0.0 | 0.00 | 0.00 | 0.00 | 1006.5 | ||
| 20260506020933 | 0 | 0.0 | 0.0 | 0.00 | 0.00 | 0.00 | 1006.7 | ||
| 20260506020431 | 0 | 0.0 | 0.0 | 0.00 | 0.00 | 0.00 | 1006.3 | ||
| 20260506015928 | 0 | 0.0 | 0.0 | 0.00 | 0.00 | 0.00 | 1006.0 | ||
| 20260506015426 | 0 | 0.0 | 0.0 | 0.00 | 0.00 | 0.00 | 1005.9 | ||
| 20260506014922 | 0 | 0.0 | 0.0 | 0.00 | 0.00 | 0.00 | 1005.7 | ||
| 20260506014419 | 0 | 0.0 | 0.0 | 0.00 | 0.00 | 0.00 | 1005.5 | ||
| 20260506013916 | 0 | 0.0 | 0.0 | 0.00 | 0.00 | 0.00 | 1005.5 | ||
| 20260506013414 | 0 | 0.0 | 0.0 | 0.00 | 0.00 | 0.00 | 1005.5 | ||
| 20260506012910 | 0 | 0.0 | 0.0 | 0.00 | 0.00 | 0.00 | 1005.5 | ||
| 20260506012407 | 0 | 0.0 | 0.0 | 0.00 | 0.00 | 0.00 | 1005.4 | ||
| 20260506011904 | 0 | 0.0 | 0.0 | 0.00 | 0.00 | 0.00 | 1005.0 | ||
| 20260506011401 | 0 | 0.0 | 0.0 | 0.00 | 0.00 | 0.00 | 1005.0 | ||
| 20260506010858 | 0 | 0.0 | 0.0 | 0.00 | 0.00 | 0.00 | 1005.1 | ||
| 20260506010356 | 0 | 0.0 | 0.0 | 0.00 | 0.00 | 0.00 | 1005.1 | ||
| 20260506005852 | 0 | 0.0 | 0.0 | 0.00 | 0.00 | 0.00 | 1005.1 | ||
| 20260506005350 | 0 | 0.0 | 0.0 | 0.00 | 0.00 | 0.00 | 1005.0 | ||
| 20260506004845 | 0 | 0.0 | 0.0 | 0.00 | 0.00 | 0.00 | 1004.7 | ||
| 20260506004343 | 0 | 0.0 | 0.0 | 0.00 | 0.00 | 0.00 | 1004.6 | ||
| 20260506003839 | 0 | 0.0 | 0.0 | 0.00 | 0.00 | 0.00 | 1004.3 | ||
| 20260506003335 | 0 | 0.0 | 0.0 | 0.00 | 0.00 | 0.00 | 1004.4 | ||
| 20260506002832 | 0 | 0.0 | 0.0 | 0.00 | 0.00 | 0.00 | 1004.7 | ||
| 20260506002328 | 0 | 0.0 | 0.0 | 0.00 | 0.00 | 0.00 | 1004.5 | ||
| 20260506001824 | 0 | 0.0 | 0.0 | 0.00 | 0.00 | 0.00 | 1004.3 | ||
| 20260506001321 | 0 | 0.0 | 0.0 | 0.00 | 0.00 | 0.00 | 1004.2 | ||
| 20260506000818 | 0 | 0.0 | 0.0 | 0.00 | 0.00 | 0.00 | 1004.5 | ||
| 20260506000316 | 0 | 0.0 | 0.0 | 0.00 | 0.00 | 0.00 | 1004.2 | ||
| 20260505235812 | 0 | 0.0 | 0.0 | 0.00 | 0.00 | 0.00 | 1004.4 | ||
| 20260505235310 | 0 | 0.0 | 0.0 | 0.00 | 0.00 | 0.00 | 1004.1 | ||
| 20260505234807 | 0 | 0.0 | 0.0 | 0.00 | 0.00 | 0.00 | 1003.9 | ||
| 20260505234305 | 0 | 0.0 | 0.0 | 0.00 | 0.00 | 0.00 | 1003.9 | ||
| 20260505233801 | 0 | 0.0 | 0.0 | 0.00 | 0.00 | 0.00 | 1003.8 | ||
| 20260505233259 | 0 | 0.0 | 0.0 | 0.00 | 0.00 | 0.00 | 1003.8 | ||
| 20260505232756 | 0 | 0.0 | 0.0 | 0.00 | 0.00 | 0.00 | 1003.7 | ||
| 20260505232254 | 0 | 0.0 | 0.0 | 0.00 | 0.00 | 0.00 | 1003.7 | ||
| 20260505231750 | 0 | 0.0 | 0.0 | 0.00 | 0.00 | 0.00 | 1003.5 | ||
| 20260505231249 | 0 | 0.0 | 0.0 | 0.00 | 0.00 | 0.00 | 1003.4 | ||
| 20260505230747 | 0 | 0.0 | 0.0 | 0.00 | 0.00 | 0.00 | 1003.5 | ||
| 20260505230243 | 0 | 0.0 | 0.0 | 0.00 | 0.00 | 0.00 | 1003.4 | ||
| 20260505225740 | 0 | 0.0 | 0.0 | 0.00 | 0.00 | 0.00 | 1003.3 | ||
| 20260505225237 | 0 | 0.0 | 0.0 | 0.00 | 0.00 | 0.00 | 1003.1 | ||
| 20260505224732 | 0 | 0.0 | 0.0 | 0.00 | 0.00 | 0.00 | 1003.2 | ||
| 20260505224230 | 0 | 0.0 | 0.0 | 0.00 | 0.00 | 0.00 | 1002.8 | ||
| 20260505223727 | 0 | 0.0 | 0.0 | 0.00 | 0.00 | 0.00 | 1002.8 | ||
| 20260505223223 | 0 | 0.0 | 0.0 | 0.00 | 0.00 | 0.00 | 1002.8 | ||
| 20260505222719 | 0 | 0.0 | 0.0 | 0.00 | 0.00 | 0.00 | 1002.9 | ||
| 20260505222215 | 0 | 0.0 | 0.0 | 0.00 | 0.00 | 0.00 | 1002.6 | ||
| 20260505221713 | 0 | 0.0 | 0.0 | 0.00 | 0.00 | 0.00 | 1002.6 | ||
| 20260505221209 | 0 | 0.0 | 0.0 | 0.00 | 0.00 | 0.00 | 1002.5 | ||
| 20260505220707 | 0 | 0.0 | 0.0 | 0.00 | 0.00 | 0.00 | 1002.5 | ||
| 20260505220204 | 0 | 0.0 | 0.0 | 0.00 | 0.00 | 0.00 | 1002.5 | ||
| 20260505215702 | 0 | 0.0 | 0.0 | 0.00 | 0.00 | 0.00 | 1002.7 | ||
| 20260505215200 | 0 | 0.0 | 0.0 | 0.00 | 0.00 | 0.00 | 1002.7 |